Powrót do katalogu

STARLINK-31069

AktywnyŁącznośćVLEO
NORAD 58607·PAYLOAD·🇺🇸 United States

Wystrzelony Dec 19, 2023 z Cape Canaveral Space Force Station

Loading…

Następne Przeloty (najbliższe 24 godziny)

TLE

ŚwieżeSource: CelesTrak SupGP

Epoka: Sep 14, 2026, 22:41 UTC

1 58607C 23200U   26257.94562500 -.00046285  00000+0 -16763-2 0  2574
2 58607  42.9999 180.0458 0001466 266.0991 139.1761 15.27604670    13

Śledź STARLINK-31069 w czasie rzeczywistym z AllMySat

Download on the App Store